Tracking 19149 objects as of 21-Apr-2018
HD Live streaming from Space Station
objects crossing your sky now

D-STAR ONE PHOENIX

Track D-STAR ONE PHOENIX now!
10-day predictions
D-STAR ONE PHOENIX is classified as:


NORAD ID: 43188
Int'l Code: 2018-014J
Perigee: 577.5 km
Apogee: 592.7 km
Inclination: 97.7 °
Period: 96.2 minutes
Semi major axis: 6956 km
RCS: Unknown
Launch date: February 1, 2018
Source: ()
Launch site: VOSTOCHNY COSMODROME (VOSTO)
Uplink (MHz): 437.325
Downlink (MHz): 435.525
Beacon (MHz): 435.525
Mode: D-Star Telemetry
Call sign: DP1GOS
Status: Inactive

aabbcc
Your satellite tracking list
Your tracking list is empty




NASA's NSSDC Master Catalog

Two Line Element Set (TLE):
1 43188U 18014J   18110.85045736 -.00000119  00000-0 -53490-5 0  9996
2 43188  97.7288  20.0535 0010979 352.1128   7.9919 14.96426399 11741
Source of the keplerian elements: AFSPC